Location: Chuathbaluk
(61.5726°N, 159.2454°W)
Time: 02:26:23
(UTC+00:00)

Altair - Pass Details

Date: 02 December 2020
Orbit: 1501 x 1682 km, 47.2° (Epoch: 23 January)

Event Time Altitude Azimuth Distance (km) Brightness Sun altitude
Rises 07:15:19 0° 224° (SW) 4,710 10.2 -38.8°
Reaches altitude 10° 07:18:54 10° 213° (SSW) 3,705 9.5 -39.2°
Enters shadow 07:20:21 14° 207° (SSW) 3,348 9.2 -39.3°
